Flag for Australia Weather past 2 weeks in Brisbane, Queensland, Australia

Now
55 °F

Passing clouds.


Feels Like: 53 °F
Forecast: 55 / 71 °F
Wind: 9 mph from Southwest

Location: Brisbane Airport M. O

Current Time: May 23, 2015 at 11:44:08 PM

Latest Report: May 23, 2015 at 11:00 PM


Visibility: N/A

Pressure: 30.27 "Hg

Humidity: 82%

Dew point: 50 °F

Location of BrisbaneLocation

Historic Weather in Brisbane — Graph

°F

Brisbane temperature yesterday

Maximum temperature yesterday: 66 °F (at 12:00 PM)
Minimum temperature yesterday: 55 °F (at 10:30 PM)
Average temperature yesterday: 62 °F

Past Weeks' High & Low Weather Summary

 TemperatureHumidityPressure
High77 °F (May 10, 2:30 PM)100% (May 17, 5:00 AM)30.42 "Hg (May 17, 5:00 AM)
Low46 °F (May 14, 5:30 AM)25% (May 9, 1:00 PM)29.89 "Hg (May 11, 1:00 PM)
Average64 °F67%30.13 "Hg
* Reported May 8 10:00 PM — May 23 10:30 PM, Brisbane, Weather by CustomWeather, © 2015

Note: Actual official high and low records may vary slightly from our data, if they occured in-between our weather recording intervals... More about our weather records

Advertising

Brisbane weather history for previous 24 hours

 ConditionsComfort  
Time TempWeatherWind HumidityBarometerVisibility
10:30 PM
Sat, May 23
55 °FClear.9 mph82%30.27 "Hg10 mi
10:00 PM55 °FClear.8 mph77%30.27 "Hg10 mi
9:30 PM61 °FClear.8 mph63%30.27 "Hg10 mi
9:00 PM59 °FClear.8 mph63%30.27 "Hg10 mi
8:30 PM61 °FClear.7 mph59%30.27 "Hg10 mi
8:00 PM63 °FClear.8 mph56%30.27 "Hg10 mi
7:30 PM63 °FClear.9 mph56%30.27 "Hg10 mi
7:00 PM64 °FClear.8 mph52%30.27 "Hg10 mi
6:30 PM63 °FClear.7 mph59%30.27 "Hg10 mi
6:00 PM64 °FClear.8 mph56%30.24 "Hg10 mi
5:30 PM66 °FPassing clouds.7 mph52%30.24 "HgN/A
5:00 PM66 °FPassing clouds.8 mph56%30.24 "HgN/A
4:30 PM66 °FPassing clouds.8 mph52%30.21 "HgN/A
3:30 PM68 °FSunny.13 mph49%30.21 "Hg10 mi
3:00 PM70 °FSunny.12 mph40%30.18 "Hg10 mi
2:30 PM70 °FSunny.15 mph40%30.18 "Hg10 mi
2:00 PM72 °FSunny.13 mph41%30.18 "Hg10 mi
1:30 PM70 °FSunny.15 mph43%30.18 "Hg10 mi
1:00 PM70 °FSunny.13 mph43%30.18 "Hg10 mi
12:30 PM72 °FPassing clouds.14 mph41%30.18 "HgN/A
12:00 PM70 °FPassing clouds.15 mph38%30.21 "HgN/A
11:30 AM72 °FPassing clouds.15 mph41%30.21 "HgN/A
11:00 AM70 °FPassing clouds.14 mph40%30.21 "HgN/A
10:30 AM70 °FPassing clouds.12 mph46%30.21 "HgN/A
10:00 AM68 °FPassing clouds.13 mph49%30.21 "HgN/A
9:30 AM66 °FPassing clouds.13 mph49%30.21 "HgN/A
9:00 AM64 °FSunny.13 mph56%30.18 "Hg10 mi
8:30 AM63 °FPassing clouds.14 mph56%30.18 "HgN/A
8:00 AM63 °FPassing clouds.13 mph56%30.18 "HgN/A
7:30 AM61 °FPassing clouds.10 mph63%30.18 "HgN/A
7:00 AM59 °FPassing clouds.10 mph68%30.15 "HgN/A
6:30 AM59 °FPartly sunny.10 mph68%30.15 "HgN/A
6:00 AM57 °FSunny.10 mph72%30.12 "Hg10 mi
5:30 AM57 °FSunny.9 mph72%30.12 "Hg10 mi
5:00 AM57 °FClear.10 mph72%30.12 "Hg10 mi
4:30 AM57 °FClear.8 mph72%30.09 "Hg10 mi
4:00 AM57 °FClear.12 mph72%30.09 "Hg10 mi
3:30 AM57 °FClear.10 mph72%30.09 "Hg10 mi
3:00 AM59 °FClear.12 mph68%30.09 "Hg10 mi
2:30 AM59 °FClear.10 mph68%30.09 "Hg10 mi
2:00 AM59 °FClear.12 mph68%30.09 "Hg10 mi
1:30 AM59 °FClear.9 mph68%30.09 "Hg10 mi
1:00 AM59 °FPassing clouds.10 mph68%30.09 "HgN/A
12:30 AM59 °FClear.10 mph68%30.09 "Hg10 mi
12:00 AM57 °FClear.8 mph72%30.09 "Hg10 mi
11:30 PM
Fri, May 22
55 °FClear.8 mph77%30.09 "Hg10 mi
11:00 PM57 °FClear.9 mph72%30.09 "Hg10 mi
Weather by CustomWeather, © 2015

See weather overviewHow to use our weather pages